When you browse on this site, cookies collect data to enhance your experience and personalize the content and advertising you see.
Visit our Privacy Policy to learn more. By continuing to use the site, you agree to this use of cookies and data.
  • En España
  • Lista de países
  • Para 7 días
  • Temperatura del agua
  • Mapa Satelital
  • El tiempo en el mapa
  • Informadores
  • user-avatar
    Iniciar sesión

    Tiempo cada hora Chervonosillya

    Hoy, 24 Mayo, Viernes

    Tiempo Temperatura Precipitaciones Viento Presión Humedad
    00:00 +16°C° 0 mm 1 mps 749 mmHg 81%
    01:00 +16°C° 0 mm 1 mps 749 mmHg 82%
    02:00 +15°C° 0 mm 1 mps 749 mmHg 82%
    03:00 +15°C° 0 mm 1 mps 749 mmHg 82%
    04:00 +15°C° 0 mm 1 mps 749 mmHg 82%
    05:00 +16°C° 0 mm 1 mps 749 mmHg 82%
    06:00 +19°C° 0 mm 1 mps 749 mmHg 75%
    07:00 +20°C° 0 mm 1 mps 749 mmHg 69%
    08:00 +22°C° 0 mm 1 mps 749 mmHg 62%
    09:00 +23°C° 0 mm 2 mps 749 mmHg 58%
    10:00 +24°C° 0 mm 2 mps 749 mmHg 53%
    11:00 +25°C° 0 mm 2 mps 749 mmHg 49%
    12:00 +26°C° 0 mm 3 mps 749 mmHg 47%
    13:00 +27°C° 0 mm 3 mps 748 mmHg 46%
    14:00 +27°C° 0 mm 3 mps 748 mmHg 44%
    15:00 +26°C° 0 mm 3 mps 748 mmHg 49%
    16:00 +26°C° 0 mm 2 mps 748 mmHg 53%
    17:00 +25°C° 0 mm 2 mps 748 mmHg 58%
    18:00 +24°C° 0 mm 2 mps 748 mmHg 59%
    19:00 +23°C° 0 mm 2 mps 748 mmHg 59%
    20:00 +22°C° 0 mm 1 mps 748 mmHg 60%
    21:00 +21°C° 0.1 mm 1 mps 748 mmHg 62%
    22:00 +21°C° 0.1 mm 1 mps 747 mmHg 65%
    23:00 +20°C° 0.1 mm 1 mps 747 mmHg 68%

    Mañana, 25 Mayo, Sábado

    Tiempo Temperatura Precipitaciones Viento Presión Humedad
    00:00 +19°C° 0.5 mm 1 mps 747 mmHg 73%
    01:00 +18°C° 0.5 mm 1 mps 747 mmHg 78%
    02:00 +18°C° 0.5 mm 1 mps 747 mmHg 83%
    03:00 +18°C° 0.1 mm 1 mps 747 mmHg 83%
    04:00 +18°C° 0.1 mm 1 mps 747 mmHg 83%
    05:00 +18°C° 0.1 mm 1 mps 747 mmHg 83%
    06:00 +20°C° 0 mm 1 mps 747 mmHg 78%
    07:00 +20°C° 0 mm 2 mps 747 mmHg 73%
    08:00 +21°C° 0 mm 2 mps 747 mmHg 69%
    09:00 +23°C° 0 mm 2 mps 747 mmHg 62%
    10:00 +24°C° 0 mm 2 mps 747 mmHg 56%
    11:00 +25°C° 0 mm 3 mps 747 mmHg 50%
    12:00 +26°C° 0.1 mm 3 mps 747 mmHg 51%
    13:00 +26°C° 0.1 mm 3 mps 746 mmHg 51%
    14:00 +26°C° 0.1 mm 3 mps 746 mmHg 52%
    15:00 +25°C° 0.9 mm 3 mps 746 mmHg 56%
    16:00 +25°C° 0.9 mm 3 mps 746 mmHg 60%
    17:00 +24°C° 0.9 mm 3 mps 746 mmHg 64%
    18:00 +22°C° 0 mm 3 mps 746 mmHg 69%
    19:00 +20°C° 0 mm 2 mps 746 mmHg 75%
    20:00 +19°C° 0 mm 2 mps 746 mmHg 80%
    21:00 +18°C° 0 mm 2 mps 746 mmHg 82%
    22:00 +18°C° 0 mm 2 mps 746 mmHg 83%
    23:00 +17°C° 0 mm 2 mps 746 mmHg 85%

    Pasado mañana, 26 Mayo, Domingo

    Tiempo Temperatura Precipitaciones Viento Presión Humedad
    00:00 +17°C° 0.3 mm 2 mps 746 mmHg 86%
    01:00 +17°C° 0.3 mm 2 mps 746 mmHg 87%
    02:00 +16°C° 0.3 mm 2 mps 746 mmHg 89%
    03:00 +16°C° 0 mm 2 mps 747 mmHg 89%
    04:00 +16°C° 0 mm 2 mps 747 mmHg 89%
    05:00 +16°C° 0 mm 3 mps 747 mmHg 89%
    06:00 +18°C° 0 mm 3 mps 747 mmHg 84%
    07:00 +20°C° 0 mm 4 mps 748 mmHg 79%
    08:00 +22°C° 0 mm 4 mps 748 mmHg 73%
    09:00 +23°C° 0 mm 4 mps 748 mmHg 68%
    10:00 +25°C° 0 mm 5 mps 748 mmHg 63%
    11:00 +26°C° 0 mm 5 mps 749 mmHg 58%
    12:00 +26°C° 0 mm 5 mps 749 mmHg 56%
    13:00 +26°C° 0 mm 6 mps 749 mmHg 54%
    14:00 +26°C° 0 mm 6 mps 749 mmHg 52%
    15:00 +26°C° 0 mm 5 mps 749 mmHg 53%
    16:00 +26°C° 0 mm 5 mps 750 mmHg 53%
    17:00 +25°C° 0 mm 4 mps 750 mmHg 53%
    18:00 +23°C° 0 mm 4 mps 750 mmHg 60%
    19:00 +21°C° 0 mm 3 mps 751 mmHg 67%
    20:00 +19°C° 0 mm 2 mps 751 mmHg 73%
    21:00 +19°C° 0 mm 2 mps 751 mmHg 76%
    22:00 +18°C° 0 mm 2 mps 752 mmHg 79%
    23:00 +18°C° 0 mm 2 mps 752 mmHg 82%

    27 Mayo, Lunes

    Tiempo Temperatura Precipitaciones Viento Presión Humedad
    00:00 +17°C° 0 mm 2 mps 752 mmHg 84%
    01:00 +17°C° 0 mm 2 mps 753 mmHg 85%
    02:00 +17°C° 0 mm 2 mps 753 mmHg 87%
    03:00 +17°C° 0 mm 2 mps 753 mmHg 87%
    04:00 +17°C° 0 mm 2 mps 753 mmHg 86%
    05:00 +17°C° 0 mm 2 mps 754 mmHg 86%
    06:00 +19°C° 0 mm 2 mps 754 mmHg 79%
    07:00 +21°C° 0 mm 2 mps 754 mmHg 72%
    08:00 +24°C° 0 mm 2 mps 754 mmHg 64%
    09:00 +25°C° 0 mm 2 mps 754 mmHg 59%
    10:00 +26°C° 0 mm 3 mps 754 mmHg 54%
    11:00 +27°C° 0 mm 3 mps 755 mmHg 48%
    12:00 +28°C° 0 mm 3 mps 754 mmHg 47%
    13:00 +28°C° 0 mm 4 mps 754 mmHg 46%
    14:00 +29°C° 0 mm 4 mps 754 mmHg 44%
    15:00 +29°C° 0 mm 4 mps 754 mmHg 46%
    16:00 +29°C° 0 mm 3 mps 754 mmHg 47%
    17:00 +29°C° 0 mm 3 mps 754 mmHg 48%
    18:00 +27°C° 0 mm 3 mps 754 mmHg 52%
    19:00 +25°C° 0 mm 2 mps 754 mmHg 55%
    20:00 +23°C° 0 mm 2 mps 754 mmHg 59%
    21:00 +23°C° 0 mm 2 mps 755 mmHg 62%
    22:00 +21°C° 0 mm 2 mps 755 mmHg 65%
    23:00 +20°C° 0 mm 3 mps 755 mmHg 69%

    28 Mayo, Martes

    Tiempo Temperatura Precipitaciones Viento Presión Humedad
    00:00 +19°C° 0 mm 2 mps 755 mmHg 71%
    01:00 +19°C° 0 mm 2 mps 755 mmHg 74%
    02:00 +18°C° 0 mm 2 mps 755 mmHg 76%
    03:00 +18°C° 0 mm 2 mps 755 mmHg 77%
    04:00 +18°C° 0 mm 2 mps 755 mmHg 79%
    05:00 +18°C° 0 mm 3 mps 755 mmHg 80%
    06:00 +20°C° 0 mm 3 mps 755 mmHg 74%
    07:00 +22°C° 0 mm 3 mps 756 mmHg 68%
    08:00 +25°C° 0 mm 3 mps 756 mmHg 62%
    09:00 +26°C° 0 mm 4 mps 756 mmHg 58%
    10:00 +27°C° 0 mm 5 mps 755 mmHg 54%
    11:00 +28°C° 0 mm 6 mps 755 mmHg 51%
    12:00 +29°C° 0 mm 6 mps 755 mmHg 48%
    13:00 +29°C° 0 mm 6 mps 755 mmHg 46%
    14:00 +30°C° 0 mm 6 mps 754 mmHg 44%
    15:00 +29°C° 0 mm 6 mps 754 mmHg 47%
    16:00 +29°C° 0 mm 6 mps 754 mmHg 50%
    17:00 +28°C° 0 mm 5 mps 753 mmHg 53%
    18:00 +26°C° 0 mm 5 mps 753 mmHg 57%
    19:00 +25°C° 0 mm 5 mps 753 mmHg 61%
    20:00 +22°C° 0 mm 5 mps 754 mmHg 66%
    21:00 +21°C° 0 mm 5 mps 754 mmHg 70%
    22:00 +20°C° 0 mm 5 mps 754 mmHg 74%
    23:00 +19°C° 0 mm 4 mps 754 mmHg 78%

    29 Mayo, Miércoles

    Tiempo Temperatura Precipitaciones Viento Presión Humedad
    00:00 +19°C° 0 mm 4 mps 754 mmHg 81%
    01:00 +18°C° 0 mm 4 mps 754 mmHg 84%
    02:00 +17°C° 0 mm 5 mps 754 mmHg 87%
    03:00 +17°C° 0 mm 5 mps 753 mmHg 88%
    04:00 +17°C° 0 mm 5 mps 753 mmHg 89%
    05:00 +17°C° 0 mm 5 mps 753 mmHg 90%
    06:00 +20°C° 0 mm 6 mps 753 mmHg 83%
    07:00 +22°C° 0 mm 6 mps 753 mmHg 76%
    08:00 +26°C° 0 mm 7 mps 753 mmHg 69%
    09:00 +27°C° 0 mm 7 mps 753 mmHg 63%
    10:00 +28°C° 0 mm 7 mps 753 mmHg 57%
    11:00 +30°C° 0 mm 7 mps 753 mmHg 51%
    12:00 +30°C° 0 mm 7 mps 753 mmHg 48%
    13:00 +32°C° 0 mm 6 mps 752 mmHg 45%
    14:00 +33°C° 0 mm 6 mps 752 mmHg 42%
    15:00 +32°C° 0 mm 5 mps 752 mmHg 45%
    16:00 +32°C° 0 mm 5 mps 752 mmHg 47%
    17:00 +32°C° 0 mm 4 mps 752 mmHg 49%
    18:00 +29°C° 0 mm 4 mps 752 mmHg 54%
    19:00 +27°C° 0 mm 4 mps 752 mmHg 60%
    20:00 +25°C° 0 mm 4 mps 752 mmHg 66%
    21:00 +23°C° 0 mm 4 mps 752 mmHg 68%
    22:00 +21°C° 0 mm 3 mps 752 mmHg 71%
    23:00 +20°C° 0 mm 3 mps 752 mmHg 74%
    Mostrar más